Location: Eppisburg
(48.5211°N, 10.5606°E)
Time: 04:58:18
(UTC+00:00)

Daily predictions for brighter satellites

Satellite Brightness Start Highest point End
(mag) Time Altitude Azimuth Time Altitude Azimuth Time Altitude Azimuth
USA 59 Rocket 3.0 03:08:36 12° ESE 03:08:36 12° ESE 03:08:55 10° ESE
SL-16 R/B 3.6 03:19:10 31° NE 03:19:29 32° NE 03:24:30 10° ESE
Cosmos 2082 Rocket 3.3 03:23:08 41° ENE 03:23:08 41° ENE 03:27:07 10° NE
USA 234 3.9 03:23:18 10° ENE 03:28:36 45° N 03:28:36 45° N
Cosmos 1980 Rocket 4.4 03:44:55 14° S 03:44:55 14° S 03:45:36 10° S
Cosmos 2369 4.4 03:51:16 45° SSE 03:51:16 45° SSE 03:55:04 10° SSE
NOSS 3-1 (C) 3.9 03:52:30 62° NW 03:54:02 88° NE 04:02:50 10° SE
Cosmos 1726 Rocket 4.5 04:01:10 44° ESE 04:01:10 44° ESE 04:04:23 10° SSE
Cosmos 841 Rocket 3.7 04:00:24 54° SSE 04:01:22 67° ESE 04:06:36 10° NNE
COSMOS 2455 3.0 04:07:00 55° SSW 04:07:00 55° SSW 04:12:02 10° SSE
Cosmos 2360 Rocket 3.3 04:09:27 23° N 04:12:25 39° NE 04:17:39 10° ESE
Cosmos 2333 Rocket 2.8 04:11:00 32° N 04:13:32 55° NE 04:19:10 10° SE
Cosmos 489 Rocket 4.5 04:08:41 10° SSW 04:14:59 81° ESE 04:21:17 10° NNE
ATLAS 3B R/B 4.2 04:14:24 22° NNW 04:18:05 31° NNE 04:24:47 10° ENE
Nadezhda 4 Rocket 3.9 04:11:59 10° S 04:18:18 86° W 04:24:37 10° N
Cosmos 1892 Rocket 4.0 04:18:53 10° S 04:23:10 60° E 04:27:31 10° NNE
Cosmos-2242 4.0 04:24:05 19° N 04:26:50 45° ENE 04:30:51 10° SSE
Cosmos 1898 Rocket 4.0 04:29:28 41° SW 04:29:28 41° SW 04:33:22 10° S
Cosmos 2219 Rocket 3.6 04:25:49 15° N 04:29:52 34° NE 04:34:57 10° ESE
COSMO-SKYMED 1 2.7 04:27:10 10° SSE 04:31:15 67° ENE 04:32:40 39° N
IRS-1D 3.4 04:28:37 10° NNE 04:33:39 84° ESE 04:38:45 10° SSW
Meteor 2-20 4.4 04:29:10 10° N 04:35:19 84° ENE 04:41:25 10° S
Cosmos 2322 Rocket 2.6 04:32:26 23° NNW 04:35:59 61° ENE 04:41:35 10° SE
SL-24 R/B 4.5 04:32:06 10° NNE 04:37:32 81° ESE 04:42:15 10° S
Orbus 7S? 3.6 04:48:21 37° NE 04:48:21 37° NE 04:50:39 10° E
Cosmos 1937 Rocket 3.7 04:49:25 42° W 04:49:39 42° WSW 04:54:27 10° S
Cosmos 858 Rocket 4.5 04:49:23 40° NW 04:50:59 57° WSW 04:56:04 10° S
BREEZE M DEB (TANK) 4.2 04:50:05 11° S 04:51:39 17° SE 04:53:57 10° E
USA 59 Rocket 1.6 04:54:18 21° SW 04:54:18 21° SW 04:57:06 10° S
Meteor 2-3 Rocket 3.6 04:48:27 10° SSW 04:54:09 68° WNW 04:59:50 10° N
BREEZE-M DEB (TANK) 3.5 04:55:04 29° ESE 04:55:04 29° ESE 04:56:12 10° ESE
Meteor 1-26 Rocket 4.1 04:49:41 10° NNW 04:55:14 87° W 05:00:56 10° S
Cosmos 1484 Rocket 3.5 04:52:32 10° NNE 04:55:51 46° E 04:59:06 10° S
Meteor 2-20 Rocket 4.2 04:51:18 10° N 04:57:06 87° E 05:02:48 10° S
Cosmos 2058 Rocket 2.9 04:54:41 18° NNW 04:57:58 80° W 05:02:21 10° S
SKYMED 2 3.9 04:55:34 10° S 04:59:41 43° W 05:00:14 41° WNW
COSMOS 2406 3.2 04:55:16 13° SW 05:00:11 57° WNW 05:05:48 10° NNE
NOSS 3-1 (A) 4.0 04:57:15 24° NW 05:02:03 79° SW 05:10:55 10° SSE
SL-16 R/B 2.3 05:01:03 28° NW 05:03:51 54° WSW 05:09:20 10° S
Cosmos 2082 Rocket 2.8 05:05:01 30° WNW 05:06:00 32° NW 05:11:02 10° NNE
COSMOS 2428 4.4 05:01:59 10° NNW 05:06:46 27° NE 05:11:32 10° ESE
Cosmos 1743 4.5 05:04:01 10° SSE 05:06:50 28° E 05:09:41 10° NNE
CZ-4 R/B 3.8 05:02:33 10° N 05:07:05 55° WNW 05:11:35 10° SSW
SeaSat 1 4.2 05:05:25 10° N 05:07:30 16° NNW 05:07:30 16° NNW
Cosmos 1627 Rocket 4.4 05:02:52 10° SSW 05:08:56 68° WNW 05:15:05 10° N
USA 234 3.9 05:05:44 10° ENE 05:11:52 44° N 05:15:57 21° NW
BREEZE-M DEB (TANK) 2.5 05:12:02 48° W 05:12:41 81° NNW 05:14:56 10° ENE
Okean 1 2.9 05:11:24 26° NNW 05:13:14 64° W 05:16:45 10° S
Helios 1A Rocket 2.8 05:12:31 10° S 05:15:39 38° W 05:15:55 37° W
Cosmos 1814 Rocket 4.2 05:11:23 10° SSW 05:16:35 75° ESE 05:21:54 10° NNE
NOAA 12 4.2 05:12:18 10° N 05:17:24 49° WNW 05:22:25 10° SW
DMSP B5D1-3 4.4 05:14:10 10° S 05:19:17 78° WSW 05:24:25 10° NNW
IRIDIUM 114 4.4 05:15:06 10° S 05:20:19 80° E 05:25:34 10° N
CBERS-1 4.3 05:16:21 10° NNE 05:21:27 70° ESE 05:26:31 10° S
Cosmos 2285 Rocket 4.0 05:17:25 10° NNW 05:23:49 84° WSW 05:30:14 10° SSE
BREEZE-M DEB (TANK) 2.7 05:23:26 33° WNW 05:24:32 74° N 05:29:46 10° E
BREEZE-M DEB (TANK) 3.2 05:24:35 23° WSW 05:26:23 49° S 05:33:12 10° ESE
Cosmos 2278 4.1 05:24:16 19° NW 05:27:49 41° WSW 05:33:03 10° S
IRIDIUM 103 4.3 05:24:15 10° S 05:29:28 86° W 05:34:44 10° N
SL-4 R/B 1.3 05:28:33 30° WNW 05:30:01 80° SSW 05:33:11 10° ESE
Cosmos 2151 3.8 05:27:28 10° S 05:31:25 50° E 05:35:24 10° NNE
Cosmos 1758 Rocket 3.5 05:28:47 10° S 05:33:12 89° E 05:37:37 10° N
Cosmos 2026 Rocket 4.2 05:28:28 10° SW 05:34:12 43° WNW 05:40:01 10° N
NOSS 8 (A) 4.2 05:33:10 27° WNW 05:34:33 60° SW 05:37:47 10° SSE
CZ-2D R/B 4.3 05:32:06 10° NNE 05:35:07 39° E 05:38:07 10° S
Cosmos 2221 2.7 05:31:29 10° N 05:35:38 71° E 05:39:45 10° SSE
Thor Agena Rocket 3.8 05:34:34 10° NNE 05:39:38 70° ESE 05:44:38 10° S
Cosmos 1238 Rocket 4.2 05:40:03 10° NNE 05:42:31 25° ENE 05:44:58 10° SE
Cosmos 405 Rocket 2.3 05:39:44 10° SSW 05:42:58 57° WNW 05:46:13 10° N
Cosmos 1707 2.9 05:43:09 10° N 05:46:15 54° ENE 05:49:20 10° SSE
IRIDIUM 106 4.3 05:42:40 10° SSW 05:47:49 61° W 05:53:01 10° N
Cosmos 158 Rocket 3.9 05:43:24 10° SSW 05:48:43 74° WNW 05:53:58 10° NNE
KORONAS-FOTON 3.7 05:50:29 10° N 05:53:52 72° E 05:57:13 10° SSE
Cosmos 1626 Rocket 3.8 05:52:00 10° SSW 05:56:16 46° WNW 06:00:31 10° N
Cosmos 2360 Rocket 2.7 05:51:12 10° NW 05:56:26 41° WSW 06:01:38 10° S
S3M 4.1 05:50:16 10° N 05:56:30 85° E 06:02:38 10° S
Cosmos 2333 Rocket 3.2 05:53:03 12° NW 05:57:31 29° WSW 06:02:20 10° SSW
Cosmos 1553 Rocket 4.3 05:51:53 10° NNW 05:57:59 49° W 06:04:05 10° SSW
SMAP 3.0 05:55:19 10° NNE 06:00:00 80° WNW 06:04:39 10° SSW
Cosmos 1833 4.2 05:55:06 10° SSW 06:00:45 75° WNW 06:06:29 10° NNE
SL-08 R/B 4.0 05:58:26 10° SSE 06:02:56 54° ENE 06:07:30 10° N
Cosmos-2242 4.4 06:00:33 10° NW 06:03:31 19° W 06:06:27 10° SW
Cosmos 1842 3.2 06:01:11 10° N 06:04:30 66° E 06:07:48 10° SSE
Landsat 7 3.8 06:00:36 10° NNE 06:05:18 86° WNW 06:09:57 10° SSW
COSMO-SKYMED 1 4.3 06:05:02 10° WSW 06:07:01 13° W 06:08:59 10° WNW
Cosmos 2237 Rocket 3.7 06:02:19 10° NNW 06:07:17 31° NE 06:12:14 10° ESE
Cosmos 1125 Rocket 3.5 06:03:10 10° NNW 06:08:26 72° WSW 06:13:37 10° SSE
ATLAS 3B R/B 3.3 06:02:27 10° NW 06:10:20 66° NE 06:17:49 10° SE
Meteor 1-10 Rocket 4.4 06:04:47 10° NNW 06:10:41 77° W 06:16:37 10° S
BREEZE-M DEB (TANK) 4.2 06:09:27 10° SW 06:11:39 36° SSE 06:14:48 10° E
Cosmos 2219 Rocket 2.5 06:08:34 10° NW 06:14:00 49° WSW 06:19:23 10° S
Meteor 1-19 Rocket 4.4 06:10:19 10° NNW 06:16:04 66° W 06:21:55 10° S
NOSS 0 Rocket 4.5 06:11:48 10° NNW 06:17:58 59° NE 06:24:07 10° SE
Cosmos 2322 Rocket 3.3 06:15:02 10° NW 06:19:35 25° WSW 06:24:05 10° SSW
BREEZE-M DEB (TANK) 3.8 06:05:45 10° W 06:21:39 83° N 06:25:40 10° E
Okean 1-7 Rocket 3.7 06:21:32 10° SSW 06:25:59 61° WNW 06:30:26 10° N
